| time (UTC) | temp F | wind direction | speed MPH | gust MPH | rain 1hr in | rain 24hr in | rain mn in | humidity % | barometer mb |
| 20260902144608 | 60 | 142 | 0.0 | 3.0 | 0.00 | 0.01 | 0.00 | 85 | 1015.7 |
| 20260902144426 | 60 | 150 | 1.0 | 4.0 | 0.00 | 0.01 | 0.00 | 85 | 1015.9 |
| 20260902131810 | 60 | 142 | 0.0 | 4.0 | 0.00 | 0.01 | 0.00 | 84 | 1016.5 |
| 20260902131310 | 60 | 144 | 0.0 | 2.0 | 0.00 | 0.01 | 0.00 | 84 | 1016.7 |
| 20260902130804 | 60 | 119 | 0.0 | 2.0 | 0.00 | 0.01 | 0.00 | 84 | 1016.6 |
| 20260902130304 | 60 | 118 | 0.0 | 3.0 | 0.00 | 0.01 | 0.00 | 84 | 1016.8 |
| 20260902125804 | 61 | 119 | 1.0 | 3.0 | 0.00 | 0.01 | 0.00 | 83 | 1016.9 |
| 20260902125306 | 61 | 96 | 1.0 | 5.0 | 0.00 | 0.01 | 0.00 | 83 | 1017.0 |
| 20260902124804 | 61 | 136 | 2.0 | 5.0 | 0.00 | 0.01 | 0.00 | 83 | 1017.0 |
| 20260902124305 | 61 | 113 | 2.0 | 5.0 | 0.00 | 0.01 | 0.00 | 83 | 1017.0 |
| 20260902123802 | 61 | 149 | 2.0 | 6.0 | 0.00 | 0.01 | 0.00 | 83 | 1017.1 |
| 20260902123302 | 61 | 163 | 1.0 | 7.0 | 0.00 | 0.01 | 0.00 | 83 | 1017.1 |
| 20260902122803 | 61 | 126 | 1.0 | 7.0 | 0.00 | 0.01 | 0.00 | 83 | 1017.1 |
| 20260902122301 | 61 | 138 | 1.0 | 3.0 | 0.00 | 0.01 | 0.00 | 83 | 1017.3 |
| 20260902121758 | 61 | 138 | 1.0 | 3.0 | 0.00 | 0.01 | 0.00 | 83 | 1017.4 |
| 20260902121259 | 61 | 137 | 1.0 | 3.0 | 0.00 | 0.01 | 0.00 | 83 | 1017.4 |
| 20260902120752 | 61 | 129 | 1.0 | 5.0 | 0.00 | 0.01 | 0.00 | 83 | 1017.6 |
| 20260902120251 | 61 | 152 | 1.0 | 5.0 | 0.00 | 0.01 | 0.00 | 83 | 1017.7 |
| 20260902115752 | 60 | 123 | 1.0 | 5.0 | 0.00 | 0.01 | 0.00 | 83 | 1017.6 |
| 20260902115252 | 60 | 147 | 2.0 | 8.0 | 0.00 | 0.01 | 0.00 | 83 | 1017.7 |
| 20260902114752 | 60 | 203 | 2.0 | 8.0 | 0.00 | 0.01 | 0.00 | 83 | 1017.8 |
| 20260902114257 | 60 | 152 | 2.0 | 5.0 | 0.00 | 0.01 | 0.00 | 84 | 1017.9 |
| 20260902113747 | 60 | 157 | 2.0 | 4.0 | 0.00 | 0.01 | 0.00 | 84 | 1017.9 |
| 20260902113245 | 60 | 132 | 1.0 | 4.0 | 0.00 | 0.01 | 0.00 | 84 | 1018.0 |
| 20260902112746 | 60 | 148 | 1.0 | 5.0 | 0.00 | 0.01 | 0.00 | 85 | 1018.1 |
| 20260902112247 | 60 | 169 | 2.0 | 5.0 | 0.00 | 0.01 | 0.00 | 85 | 1018.2 |
| 20260902111746 | 60 | 146 | 1.0 | 5.0 | 0.00 | 0.01 | 0.00 | 85 | 1018.2 |
| 20260902111247 | 60 | 156 | 1.0 | 7.0 | 0.00 | 0.01 | 0.00 | 85 | 1018.1 |
| 20260902110740 | 60 | 155 | 2.0 | 7.0 | 0.00 | 0.01 | 0.00 | 85 | 1018.2 |
| 20260902110237 | 60 | 126 | 2.0 | 8.0 | 0.00 | 0.01 | 0.00 | 85 | 1018.4 |
| 20260902105738 | 60 | 124 | 2.0 | 8.0 | 0.00 | 0.01 | 0.00 | 85 | 1018.4 |
| 20260902105239 | 60 | 152 | 2.0 | 7.0 | 0.00 | 0.01 | 0.00 | 85 | 1018.7 |
| 20260902104737 | 60 | 153 | 2.0 | 7.0 | 0.00 | 0.01 | 0.00 | 85 | 1018.5 |
| 20260902104239 | 59 | 204 | 1.0 | 7.0 | 0.00 | 0.01 | 0.00 | 85 | 1018.8 |
| 20260902103737 | 59 | 150 | 1.0 | 4.0 | 0.00 | 0.01 | 0.00 | 85 | 1018.9 |
| 20260902103234 | 59 | 144 | 2.0 | 7.0 | 0.00 | 0.01 | 0.00 | 85 | 1019.0 |
| 20260902102735 | 59 | 136 | 2.0 | 7.0 | 0.00 | 0.01 | 0.00 | 86 | 1018.9 |
| 20260902102233 | 59 | 161 | 1.0 | 7.0 | 0.00 | 0.01 | 0.00 | 86 | 1018.9 |
| 20260902101732 | 59 | 142 | 1.0 | 7.0 | 0.00 | 0.01 | 0.00 | 86 | 1019.0 |
| 20260902101232 | 59 | 142 | 1.0 | 6.0 | 0.00 | 0.01 | 0.00 | 86 | 1019.2 |
| 20260902100727 | 59 | 141 | 1.0 | 5.0 | 0.00 | 0.01 | 0.00 | 86 | 1019.1 |
| 20260902100227 | 59 | 159 | 2.0 | 5.0 | 0.00 | 0.01 | 0.00 | 86 | 1019.1 |
| 20260902095726 | 59 | 150 | 1.0 | 5.0 | 0.00 | 0.01 | 0.00 | 86 | 1019.2 |
| 20260902095223 | 59 | 181 | 0.0 | 4.0 | 0.00 | 0.01 | 0.00 | 86 | 1019.3 |
| 20260902094724 | 59 | 130 | 0.0 | 2.0 | 0.00 | 0.01 | 0.00 | 86 | 1019.3 |
| 20260902094224 | 59 | 130 | 0.0 | 4.0 | 0.00 | 0.01 | 0.00 | 86 | 1019.2 |
| 20260902093717 | 59 | 132 | 0.0 | 4.0 | 0.00 | 0.01 | 0.00 | 85 | 1019.2 |
| 20260902093219 | 59 | 144 | 0.0 | 1.0 | 0.00 | 0.01 | 0.00 | 85 | 1019.3 |
| 20260902092718 | 59 | 143 | 0.0 | 1.0 | 0.00 | 0.01 | 0.00 | 85 | 1019.4 |
| 20260902092217 | 59 | 143 | 0.0 | 1.0 | 0.00 | 0.01 | 0.00 | 84 | 1019.4 |
| 20260902091718 | 60 | 143 | 0.0 | 2.0 | 0.00 | 0.01 | 0.00 | 84 | 1019.4 |
| 20260902091219 | 60 | 144 | 0.0 | 3.0 | 0.00 | 0.01 | 0.00 | 84 | 1019.5 |
| 20260902090713 | 60 | 143 | 0.0 | 3.0 | 0.00 | 0.01 | 0.00 | 83 | 1019.6 |
| 20260902090214 | 60 | 131 | 0.0 | 3.0 | 0.00 | 0.01 | 0.00 | 83 | 1019.6 |
| 20260902085712 | 60 | 132 | 1.0 | 3.0 | 0.00 | 0.01 | 0.00 | 83 | 1019.7 |
| 20260902085212 | 60 | 141 | 1.0 | 4.0 | 0.00 | 0.01 | 0.00 | 83 | 1019.7 |
| 20260902084712 | 60 | 142 | 2.0 | 6.0 | 0.00 | 0.01 | 0.00 | 83 | 1019.9 |
| 20260902084211 | 60 | 150 | 1.0 | 6.0 | 0.00 | 0.01 | 0.00 | 83 | 1019.8 |
| 20260902083706 | 60 | 185 | 1.0 | 6.0 | 0.00 | 0.01 | 0.00 | 83 | 1019.9 |
| 20260902083205 | 60 | 162 | 1.0 | 6.0 | 0.00 | 0.01 | 0.00 | 83 | 1019.8 |
| 20260902082707 | 60 | 154 | 1.0 | 5.0 | 0.00 | 0.01 | 0.00 | 83 | 1020.0 |
| 20260902082207 | 60 | 168 | 0.0 | 3.0 | 0.00 | 0.01 | 0.00 | 83 | 1020.0 |
| 20260902081704 | 60 | 166 | 1.0 | 3.0 | 0.00 | 0.01 | 0.00 | 83 | 1020.0 |
| 20260902081204 | 60 | 161 | 1.0 | 3.0 | 0.00 | 0.01 | 0.00 | 83 | 1020.1 |
| 20260902080659 | 60 | 157 | 1.0 | 5.0 | 0.00 | 0.01 | 0.00 | 83 | 1020.0 |
| 20260902080153 | 60 | 169 | 1.0 | 5.0 | 0.00 | 0.01 | 0.00 | 83 | 1020.1 |
| 20260902075645 | 60 | 191 | 1.0 | 3.0 | 0.00 | 0.01 | 0.00 | 83 | 1020.1 |
| 20260902075146 | 60 | 197 | 1.0 | 5.0 | 0.00 | 0.01 | 0.00 | 83 | 1020.0 |
| 20260902074645 | 60 | 167 | 2.0 | 5.0 | 0.00 | 0.01 | 0.00 | 83 | 1020.0 |
| 20260902074147 | 60 | 188 | 2.0 | 5.0 | 0.00 | 0.01 | 0.00 | 83 | 1019.8 |
| 20260902073647 | 60 | 192 | 2.0 | 6.0 | 0.00 | 0.01 | 0.00 | 83 | 1019.8 |
| 20260902073145 | 60 | 171 | 2.0 | 6.0 | 0.00 | 0.01 | 0.00 | 83 | 1019.9 |
| 20260902072647 | 60 | 173 | 2.0 | 8.0 | 0.00 | 0.01 | 0.00 | 83 | 1020.0 |
| 20260902072144 | 60 | 196 | 2.0 | 8.0 | 0.00 | 0.01 | 0.00 | 84 | 1020.0 |
| 20260902071640 | 60 | 161 | 2.0 | 6.0 | 0.00 | 0.01 | 0.00 | 84 | 1020.2 |
| 20260902071140 | 60 | 167 | 2.0 | 4.0 | 0.00 | 0.01 | 0.00 | 84 | 1020.0 |
| 20260902070639 | 60 | 190 | 2.0 | 7.0 | 0.00 | 0.01 | 0.00 | 84 | 1020.2 |
| 20260902070140 | 60 | 223 | 2.0 | 7.0 | 0.00 | 0.01 | 0.00 | 84 | 1020.2 |
| 20260902065641 | 60 | 162 | 2.0 | 7.0 | 0.00 | 0.01 | 0.01 | 84 | 1020.3 |
| 20260902065138 | 61 | 151 | 2.0 | 7.0 | 0.00 | 0.01 | 0.01 | 84 | 1020.3 |
| 20260902064635 | 61 | 147 | 2.0 | 6.0 | 0.00 | 0.01 | 0.01 | 84 | 1020.4 |
| 20260902064136 | 61 | 174 | 2.0 | 7.0 | 0.00 | 0.01 | 0.01 | 84 | 1020.3 |
| 20260902063631 | 61 | 177 | 2.0 | 7.0 | 0.00 | 0.01 | 0.01 | 84 | 1020.3 |
| 20260902063129 | 61 | 207 | 2.0 | 6.0 | 0.00 | 0.01 | 0.01 | 83 | 1020.4 |
| 20260902062625 | 62 | 184 | 2.0 | 8.0 | 0.00 | 0.01 | 0.01 | 83 | 1020.4 |
| 20260902062124 | 62 | 185 | 2.0 | 8.0 | 0.00 | 0.01 | 0.01 | 83 | 1020.4 |
| 20260902061625 | 62 | 173 | 2.0 | 8.0 | 0.00 | 0.01 | 0.01 | 83 | 1020.5 |
| 20260902061122 | 62 | 215 | 3.0 | 10.0 | 0.00 | 0.01 | 0.01 | 83 | 1020.5 |
| 20260902060622 | 62 | 213 | 3.0 | 10.0 | 0.00 | 0.01 | 0.01 | 83 | 1020.5 |
| 20260902060121 | 62 | 185 | 3.0 | 10.0 | 0.00 | 0.01 | 0.01 | 83 | 1020.5 |
| 20260902055623 | 62 | 146 | 3.0 | 9.0 | 0.00 | 0.01 | 0.01 | 83 | 1020.7 |
| 20260902055122 | 62 | 152 | 3.0 | 9.0 | 0.00 | 0.01 | 0.01 | 83 | 1020.7 |
| 20260902054622 | 62 | 153 | 2.0 | 9.0 | 0.00 | 0.01 | 0.01 | 83 | 1020.8 |
| 20260902054122 | 62 | 126 | 2.0 | 7.0 | 0.00 | 0.01 | 0.01 | 83 | 1020.7 |
| 20260902053621 | 62 | 187 | 2.0 | 7.0 | 0.00 | 0.01 | 0.01 | 83 | 1020.8 |
| 20260902053121 | 62 | 150 | 2.0 | 5.0 | 0.00 | 0.01 | 0.01 | 83 | 1020.8 |
| 20260902052623 | 62 | 146 | 2.0 | 5.0 | 0.00 | 0.01 | 0.01 | 83 | 1020.8 |
| 20260902052119 | 62 | 155 | 2.0 | 6.0 | 0.00 | 0.01 | 0.01 | 83 | 1020.8 |
| 20260902051619 | 62 | 167 | 2.0 | 6.0 | 0.00 | 0.01 | 0.01 | 83 | 1020.9 |
| 20260902051122 | 62 | 157 | 1.0 | 5.0 | 0.00 | 0.01 | 0.01 | 83 | 1020.9 |
| 20260902050617 | 62 | 141 | 1.0 | 5.0 | 0.00 | 0.01 | 0.01 | 83 | 1020.9 |
| 20260902050117 | 62 | 157 | 1.0 | 3.0 | 0.00 | 0.01 | 0.01 | 82 | 1020.9 |
| 20260902045618 | 62 | 159 | 1.0 | 3.0 | 0.00 | 0.01 | 0.01 | 82 | 1020.9 |
| 20260902045118 | 62 | 158 | 1.0 | 3.0 | 0.00 | 0.01 | 0.01 | 82 | 1020.9 |
| 20260902044617 | 62 | 158 | 0.0 | 2.0 | 0.00 | 0.01 | 0.01 | 82 | 1020.8 |
| 20260902044119 | 62 | 157 | 0.0 | 2.0 | 0.00 | 0.01 | 0.01 | 82 | 1020.8 |
| 20260902043613 | 62 | 157 | 0.0 | 2.0 | 0.00 | 0.01 | 0.01 | 81 | 1020.9 |
| 20260902043114 | 62 | 158 | 0.0 | 2.0 | 0.00 | 0.01 | 0.01 | 81 | 1020.8 |
| 20260902042614 | 62 | 157 | 0.0 | 2.0 | 0.00 | 0.01 | 0.01 | 81 | 1020.8 |
| 20260902042114 | 63 | 157 | 0.0 | 3.0 | 0.00 | 0.01 | 0.01 | 81 | 1020.8 |
| 20260902041614 | 63 | 157 | 0.0 | 3.0 | 0.00 | 0.01 | 0.01 | 81 | 1020.8 |
| 20260902041115 | 63 | 156 | 0.0 | 2.0 | 0.00 | 0.01 | 0.01 | 81 | 1020.9 |
| 20260902040609 | 63 | 157 | 0.0 | 2.0 | 0.00 | 0.01 | 0.01 | 81 | 1021.0 |
| 20260902040110 | 63 | 157 | 0.0 | 2.0 | 0.00 | 0.01 | 0.01 | 81 | 1020.9 |
| 20260902035609 | 63 | 157 | 1.0 | 3.0 | 0.00 | 0.01 | 0.01 | 81 | 1020.9 |
| 20260902035110 | 63 | 155 | 2.0 | 6.0 | 0.00 | 0.01 | 0.01 | 80 | 1020.8 |
| 20260902034609 | 63 | 151 | 2.0 | 6.0 | 0.00 | 0.01 | 0.01 | 80 | 1020.8 |
| 20260902034110 | 63 | 137 | 2.0 | 7.0 | 0.00 | 0.01 | 0.01 | 80 | 1020.8 |
| 20260902033604 | 63 | 178 | 2.0 | 7.0 | 0.00 | 0.01 | 0.01 | 80 | 1020.8 |
| 20260902033105 | 63 | 163 | 3.0 | 7.0 | 0.00 | 0.01 | 0.01 | 80 | 1020.8 |
| 20260902032600 | 63 | 246 | 2.0 | 7.0 | 0.00 | 0.01 | 0.01 | 80 | 1020.8 |
| 20260902032100 | 63 | 181 | 2.0 | 7.0 | 0.00 | 0.01 | 0.01 | 80 | 1020.8 |
| 20260902031557 | 63 | 182 | 2.0 | 7.0 | 0.00 | 0.01 | 0.01 | 80 | 1020.7 |
| 20260902031057 | 63 | 230 | 2.0 | 6.0 | 0.00 | 0.01 | 0.01 | 79 | 1020.7 |
| 20260902030555 | 63 | 197 | 2.0 | 6.0 | 0.00 | 0.01 | 0.01 | 79 | 1020.6 |
| 20260902030056 | 64 | 184 | 2.0 | 6.0 | 0.00 | 0.01 | 0.01 | 79 | 1020.6 |
| 20260902025551 | 64 | 167 | 1.0 | 6.0 | 0.00 | 0.01 | 0.01 | 79 | 1020.5 |
| 20260902025051 | 64 | 187 | 1.0 | 3.0 | 0.00 | 0.01 | 0.01 | 79 | 1020.5 |
| 20260902024553 | 64 | 199 | 1.0 | 3.0 | 0.00 | 0.01 | 0.01 | 79 | 1020.5 |
| 20260902024051 | 64 | 217 | 1.0 | 4.0 | 0.00 | 0.01 | 0.01 | 78 | 1020.4 |
| 20260902023555 | 64 | 230 | 1.0 | 5.0 | 0.00 | 0.01 | 0.01 | 78 | 1020.5 |
| 20260902023050 | 64 | 161 | 1.0 | 5.0 | 0.00 | 0.01 | 0.01 | 78 | 1020.4 |
| 20260902022545 | 64 | 148 | 1.0 | 5.0 | 0.00 | 0.01 | 0.01 | 78 | 1020.4 |
| 20260902022045 | 64 | 172 | 1.0 | 6.0 | 0.00 | 0.01 | 0.01 | 78 | 1020.4 |
| 20260902021546 | 64 | 194 | 1.0 | 6.0 | 0.00 | 0.01 | 0.01 | 78 | 1020.4 |
| 20260902021047 | 64 | 242 | 1.0 | 4.0 | 0.00 | 0.01 | 0.01 | 78 | 1020.5 |
| 20260902020543 | 64 | 244 | 1.0 | 4.0 | 0.00 | 0.01 | 0.01 | 78 | 1020.4 |
| 20260902020044 | 64 | 186 | 1.0 | 4.0 | 0.00 | 0.01 | 0.01 | 78 | 1020.4 |
| 20260902015542 | 64 | 261 | 1.0 | 4.0 | 0.00 | 0.01 | 0.01 | 78 | 1020.3 |
| 20260902015039 | 64 | 252 | 1.0 | 4.0 | 0.00 | 0.01 | 0.01 | 78 | 1020.3 |
| 20260902014541 | 64 | 186 | 1.0 | 3.0 | 0.00 | 0.01 | 0.01 | 78 | 1020.3 |
| 20260902014041 | 64 | 185 | 1.0 | 5.0 | 0.00 | 0.01 | 0.01 | 78 | 1020.2 |
| 20260902013537 | 64 | 244 | 1.0 | 5.0 | 0.00 | 0.01 | 0.01 | 78 | 1020.4 |
| 20260902013038 | 64 | 171 | 1.0 | 5.0 | 0.00 | 0.01 | 0.01 | 79 | 1020.5 |
| 20260902012535 | 64 | 246 | 2.0 | 5.0 | 0.00 | 0.01 | 0.01 | 79 | 1020.4 |
| 20260902012035 | 64 | 178 | 2.0 | 7.0 | 0.00 | 0.01 | 0.01 | 78 | 1020.5 |
| 20260902011536 | 64 | 246 | 2.0 | 7.0 | 0.00 | 0.01 | 0.01 | 78 | 1020.6 |
| 20260902011033 | 64 | 182 | 3.0 | 7.0 | 0.00 | 0.01 | 0.01 | 78 | 1020.6 |
| 20260902010531 | 64 | 243 | 3.0 | 11.0 | 0.00 | 0.01 | 0.01 | 77 | 1020.5 |
| 20260902010030 | 65 | 198 | 3.0 | 11.0 | 0.00 | 0.01 | 0.01 | 78 | 1020.4 |
| 20260902005524 | 65 | 228 | 4.0 | 9.0 | 0.00 | 0.01 | 0.01 | 77 | 1020.3 |
| 20260902005023 | 65 | 266 | 3.0 | 9.0 | 0.00 | 0.01 | 0.01 | 77 | 1020.2 |
| 20260902004523 | 65 | 204 | 3.0 | 8.0 | 0.00 | 0.01 | 0.01 | 76 | 1020.2 |
| 20260902004023 | 65 | 231 | 4.0 | 11.0 | 0.00 | 0.01 | 0.01 | 76 | 1020.2 |
| 20260902003523 | 66 | 274 | 3.0 | 11.0 | 0.00 | 0.01 | 0.01 | 75 | 1020.1 |
| 20260902003023 | 66 | 222 | 2.0 | 7.0 | 0.00 | 0.01 | 0.01 | 75 | 1020.1 |
| 20260902002518 | 67 | 219 | 4.0 | 9.0 | 0.00 | 0.01 | 0.01 | 75 | 1019.9 |
| 20260902002017 | 67 | 241 | 4.0 | 9.0 | 0.00 | 0.01 | 0.01 | 74 | 1020.0 |
| 20260902001517 | 67 | 273 | 3.0 | 8.0 | 0.00 | 0.01 | 0.01 | 73 | 1019.9 |
| 20260902001017 | 67 | 242 | 2.0 | 5.0 | 0.00 | 0.01 | 0.01 | 73 | 1019.9 |
| 20260902000517 | 67 | 182 | 3.0 | 7.0 | 0.00 | 0.01 | 0.01 | 72 | 1019.9 |
| 20260902000018 | 67 | 247 | 3.0 | 7.0 | 0.00 | 0.01 | 0.01 | 72 | 1020.0 |
| 20260901235514 | 67 | 268 | 3.0 | 8.0 | 0.00 | 0.01 | 0.01 | 72 | 1019.9 |
| 20260901235012 | 67 | 241 | 2.0 | 8.0 | 0.00 | 0.01 | 0.01 | 71 | 1019.9 |
| 20260901234511 | 67 | 204 | 3.0 | 9.0 | 0.00 | 0.01 | 0.01 | 71 | 1019.9 |
| 20260901234011 | 67 | 240 | 4.0 | 9.0 | 0.00 | 0.01 | 0.01 | 71 | 1019.9 |
| 20260901233510 | 67 | 248 | 3.0 | 9.0 | 0.00 | 0.01 | 0.01 | 71 | 1019.9 |
| 20260901232508 | 68 | 226 | 2.0 | 7.0 | 0.00 | 0.01 | 0.01 | 72 | 1019.9 |
| 20260901232009 | 68 | 232 | 3.0 | 7.0 | 0.00 | 0.01 | 0.01 | 72 | 1020.0 |
| 20260901231510 | 68 | 213 | 3.0 | 7.0 | 0.00 | 0.01 | 0.01 | 72 | 1020.0 |
| 20260901231006 | 68 | 273 | 2.0 | 7.0 | 0.00 | 0.01 | 0.01 | 72 | 1020.0 |
| 20260901230505 | 68 | 254 | 2.0 | 5.0 | 0.00 | 0.01 | 0.01 | 72 | 1020.1 |
| 20260901230005 | 68 | 211 | 2.0 | 6.0 | 0.00 | 0.01 | 0.01 | 72 | 1020.0 |
| 20260901225500 | 68 | 166 | 2.0 | 6.0 | 0.00 | 0.01 | 0.01 | 71 | 1020.0 |
| 20260901224959 | 68 | 205 | 2.0 | 6.0 | 0.00 | 0.01 | 0.01 | 71 | 1020.0 |
| 20260901224458 | 68 | 259 | 2.0 | 6.0 | 0.00 | 0.01 | 0.01 | 72 | 1020.0 |
| 20260901223958 | 68 | 242 | 2.0 | 5.0 | 0.00 | 0.01 | 0.01 | 72 | 1020.0 |
| 20260901223459 | 68 | 191 | 3.0 | 7.0 | 0.00 | 0.01 | 0.01 | 72 | 1020.0 |
| 20260901223000 | 68 | 217 | 3.0 | 7.0 | 0.00 | 0.01 | 0.01 | 72 | 1020.1 |
| 20260901222453 | 68 | 163 | 3.0 | 7.0 | 0.00 | 0.01 | 0.01 | 71 | 1020.1 |
| 20260901221953 | 68 | 249 | 3.0 | 7.0 | 0.00 | 0.01 | 0.01 | 71 | 1020.1 |
| 20260901221453 | 68 | 188 | 3.0 | 6.0 | 0.00 | 0.01 | 0.01 | 71 | 1020.1 |
| 20260901220952 | 68 | 207 | 2.0 | 6.0 | 0.00 | 0.01 | 0.01 | 71 | 1020.1 |
| 20260901220453 | 68 | 215 | 3.0 | 10.0 | 0.00 | 0.01 | 0.01 | 71 | 1020.0 |
| 20260901215954 | 68 | 167 | 3.0 | 10.0 | 0.00 | 0.01 | 0.01 | 71 | 1020.0 |
| 20260901215448 | 68 | 209 | 2.0 | 6.0 | 0.00 | 0.01 | 0.01 | 72 | 1020.0 |
| 20260901214946 | 67 | 212 | 2.0 | 8.0 | 0.00 | 0.01 | 0.01 | 72 | 1020.0 |
| 20260901214446 | 67 | 148 | 2.0 | 8.0 | 0.00 | 0.01 | 0.01 | 72 | 1019.9 |
| 20260901213948 | 67 | 215 | 3.0 | 8.0 | 0.00 | 0.01 | 0.01 | 72 | 1019.9 |
| 20260901213447 | 67 | 246 | 3.0 | 8.0 | 0.00 | 0.01 | 0.01 | 73 | 1019.9 |
| 20260901212948 | 67 | 196 | 2.0 | 8.0 | 0.00 | 0.01 | 0.01 | 73 | 1019.8 |
| 20260901212445 | 67 | 163 | 2.0 | 9.0 | 0.00 | 0.01 | 0.01 | 72 | 1019.9 |
| 20260901211943 | 67 | 216 | 3.0 | 9.0 | 0.00 | 0.01 | 0.01 | 73 | 1019.9 |
| 20260901211440 | 67 | 155 | 4.0 | 10.0 | 0.00 | 0.01 | 0.01 | 72 | 1020.0 |
| 20260901210940 | 68 | 152 | 3.0 | 10.0 | 0.00 | 0.01 | 0.01 | 72 | 1020.0 |
| 20260901210438 | 68 | 182 | 2.0 | 8.0 | 0.00 | 0.01 | 0.01 | 72 | 1020.0 |
| 20260901205940 | 68 | 166 | 3.0 | 7.0 | 0.00 | 0.01 | 0.01 | 72 | 1019.8 |
| 20260901205437 | 68 | 175 | 2.0 | 7.0 | 0.00 | 0.01 | 0.01 | 71 | 1019.9 |
| 20260901204937 | 68 | 182 | 2.0 | 9.0 | 0.00 | 0.01 | 0.01 | 71 | 1019.9 |
| 20260901204438 | 69 | 177 | 3.0 | 9.0 | 0.00 | 0.01 | 0.01 | 71 | 1019.9 |
| 20260901203934 | 69 | 232 | 3.0 | 8.0 | 0.00 | 0.01 | 0.01 | 70 | 1019.9 |
| 20260901203436 | 69 | 155 | 3.0 | 7.0 | 0.00 | 0.01 | 0.01 | 70 | 1019.9 |
| 20260901202934 | 69 | 161 | 3.0 | 11.0 | 0.00 | 0.01 | 0.01 | 69 | 1019.9 |
| 20260901202436 | 69 | 193 | 4.0 | 11.0 | 0.00 | 0.01 | 0.01 | 70 | 1020.0 |
| 20260901201932 | 69 | 263 | 3.0 | 9.0 | 0.00 | 0.01 | 0.01 | 71 | 1020.1 |
| 20260901201430 | 69 | 162 | 3.0 | 9.0 | 0.00 | 0.01 | 0.01 | 72 | 1020.0 |
| 20260901200932 | 68 | 212 | 3.0 | 8.0 | 0.00 | 0.01 | 0.01 | 73 | 1020.0 |
| 20260901200431 | 67 | 189 | 3.0 | 8.0 | 0.00 | 0.01 | 0.01 | 75 | 1020.0 |
| 20260901195930 | 67 | 194 | 2.0 | 6.0 | 0.00 | 0.01 | 0.01 | 77 | 1020.0 |
| 20260901195431 | 67 | 172 | 1.0 | 6.0 | 0.00 | 0.01 | 0.01 | 78 | 1020.1 |
| 20260901194932 | 67 | 168 | 1.0 | 6.0 | 0.00 | 0.01 | 0.01 | 77 | 1020.1 |
| 20260901194429 | 67 | 162 | 1.0 | 6.0 | 0.00 | 0.01 | 0.01 | 78 | 1020.2 |
| 20260901193928 | 67 | 175 | 1.0 | 6.0 | 0.00 | 0.01 | 0.01 | 78 | 1020.3 |
| 20260901193429 | 67 | 173 | 2.0 | 8.0 | 0.00 | 0.01 | 0.01 | 78 | 1020.3 |
| 20260901192929 | 67 | 197 | 3.0 | 8.0 | 0.00 | 0.01 | 0.01 | 78 | 1020.3 |
| 20260901192430 | 67 | 167 | 2.0 | 7.0 | 0.00 | 0.01 | 0.01 | 78 | 1020.4 |
| 20260901191928 | 67 | 133 | 2.0 | 8.0 | 0.01 | 0.01 | 0.01 | 78 | 1020.5 |
| 20260901191429 | 67 | 123 | 2.0 | 8.0 | 0.01 | 0.01 | 0.01 | 79 | 1020.5 |
| 20260901190929 | 67 | 147 | 2.0 | 11.0 | 0.01 | 0.01 | 0.01 | 80 | 1020.5 |
| 20260901190428 | 67 | 138 | 2.0 | 11.0 | 0.01 | 0.01 | 0.01 | 81 | 1020.7 |
| 20260901185930 | 66 | 180 | 3.0 | 8.0 | 0.01 | 0.01 | 0.01 | 83 | 1020.6 |
| 20260901185423 | 66 | 206 | 3.0 | 8.0 | 0.01 | 0.01 | 0.01 | 83 | 1020.7 |
| 20260901184919 | 65 | 185 | 3.0 | 7.0 | 0.01 | 0.01 | 0.01 | 83 | 1020.8 |
| 20260901184418 | 65 | 129 | 2.0 | 7.0 | 0.01 | 0.01 | 0.01 | 85 | 1020.8 |
| 20260901183918 | 64 | 134 | 2.0 | 8.0 | 0.01 | 0.01 | 0.01 | 85 | 1020.7 |
| 20260901183418 | 64 | 161 | 3.0 | 8.0 | 0.01 | 0.01 | 0.01 | 84 | 1020.8 |
| 20260901182919 | 64 | 161 | 3.0 | 7.0 | 0.01 | 0.01 | 0.01 | 84 | 1020.8 |
| 20260901182419 | 64 | 209 | 3.0 | 8.0 | 0.01 | 0.01 | 0.01 | 84 | 1020.9 |
| 20260901181915 | 64 | 158 | 3.0 | 8.0 | 0.00 | 0.00 | 0.00 | 84 | 1020.9 |
| 20260901181414 | 64 | 192 | 3.0 | 8.0 | 0.00 | 0.00 | 0.00 | 83 | 1020.9 |
| 20260901180914 | 64 | 180 | 3.0 | 8.0 | 0.00 | 0.00 | 0.00 | 82 | 1020.8 |
| 20260901180415 | 64 | 189 | 2.0 | 8.0 | 0.00 | 0.00 | 0.00 | 82 | 1020.9 |
| 20260901175915 | 65 | 142 | 2.0 | 7.0 | 0.00 | 0.00 | 0.00 | 82 | 1020.9 |
| 20260901175415 | 65 | 199 | 3.0 | 9.0 | 0.00 | 0.00 | 0.00 | 82 | 1020.9 |
| 20260901174911 | 64 | 161 | 2.0 | 9.0 | 0.00 | 0.00 | 0.00 | 83 | 1021.0 |
| 20260901174412 | 64 | 171 | 2.0 | 7.0 | 0.00 | 0.00 | 0.00 | 84 | 1020.9 |
| 20260901173910 | 64 | 159 | 3.0 | 6.0 | 0.00 | 0.00 | 0.00 | 85 | 1020.8 |
| 20260901173411 | 63 | 166 | 3.0 | 11.0 | 0.00 | 0.00 | 0.00 | 84 | 1020.8 |
| 20260901172910 | 63 | 155 | 3.0 | 11.0 | 0.00 | 0.00 | 0.00 | 84 | 1020.8 |
| 20260901172412 | 63 | 230 | 3.0 | 8.0 | 0.00 | 0.00 | 0.00 | 85 | 1020.8 |
| 20260901171910 | 63 | 144 | 3.0 | 8.0 | 0.00 | 0.00 | 0.00 | 85 | 1020.7 |
| 20260901171410 | 63 | 206 | 2.0 | 7.0 | 0.00 | 0.00 | 0.00 | 85 | 1020.7 |
| 20260901170911 | 63 | 162 | 2.0 | 8.0 | 0.00 | 0.00 | 0.00 | 86 | 1020.6 |
| 20260901170407 | 63 | 222 | 2.0 | 8.0 | 0.00 | 0.00 | 0.00 | 86 | 1020.6 |
| 20260901165904 | 62 | 167 | 3.0 | 8.0 | 0.00 | 0.00 | 0.00 | 87 | 1020.8 |
| 20260901165403 | 62 | 178 | 2.0 | 8.0 | 0.00 | 0.00 | 0.00 | 87 | 1020.7 |
| 20260901164902 | 61 | 153 | 1.0 | 4.0 | 0.00 | 0.00 | 0.00 | 88 | 1020.7 |
| 20260901164402 | 61 | 157 | 1.0 | 3.0 | 0.00 | 0.00 | 0.00 | 89 | 1020.7 |
| 20260901163902 | 60 | 157 | 1.0 | 5.0 | 0.00 | 0.00 | 0.00 | 89 | 1020.8 |
| 20260901163358 | 60 | 159 | 1.0 | 5.0 | 0.00 | 0.00 | 0.00 | 89 | 1020.9 |
| 20260901162858 | 60 | 205 | 1.0 | 4.0 | 0.00 | 0.00 | 0.00 | 89 | 1020.9 |
| 20260901162356 | 60 | 146 | 1.0 | 4.0 | 0.00 | 0.00 | 0.00 | 89 | 1021.0 |
| 20260901161856 | 60 | 166 | 1.0 | 4.0 | 0.00 | 0.00 | 0.00 | 89 | 1021.0 |
| 20260901161356 | 60 | 168 | 1.0 | 4.0 | 0.00 | 0.00 | 0.00 | 89 | 1021.2 |
| 20260901160857 | 60 | 163 | 2.0 | 5.0 | 0.00 | 0.00 | 0.00 | 89 | 1021.2 |
| 20260901160351 | 60 | 175 | 2.0 | 6.0 | 0.00 | 0.00 | 0.00 | 89 | 1021.1 |
| 20260901155850 | 60 | 170 | 2.0 | 6.0 | 0.00 | 0.00 | 0.00 | 89 | 1021.1 |
| 20260901155350 | 60 | 200 | 1.0 | 5.0 | 0.00 | 0.00 | 0.00 | 89 | 1021.0 |
| 20260901154850 | 60 | 169 | 1.0 | 4.0 | 0.00 | 0.00 | 0.00 | 88 | 1021.1 |
| 20260901154350 | 60 | 155 | 1.0 | 6.0 | 0.00 | 0.00 | 0.00 | 88 | 1021.1 |
| 20260901153850 | 60 | 154 | 2.0 | 6.0 | 0.00 | 0.00 | 0.00 | 88 | 1021.1 |
| 20260901153344 | 60 | 165 | 1.0 | 5.0 | 0.00 | 0.00 | 0.00 | 88 | 1021.0 |
| 20260901152844 | 60 | 161 | 2.0 | 5.0 | 0.00 | 0.00 | 0.00 | 87 | 1021.1 |